Home   Weather   Lørenskog   Past weeks

Flag for Norway Past Weather in Lørenskog, Norway — Yesterday and Last 2 Weeks

Now
53 °F

Passing clouds.


Feels Like: 52 °F
Forecast: 35 / 54 °F
Wind: 6 mph from Southwest

Location: Oslo-Blindern

Current Time: Apr 30, 2017 at 3:11:54 pm

Latest Report: Apr 30, 2017 at 2:00 pm


Visibility: 41 mi

Pressure: 30.13 "Hg

Humidity: 35%

Dew Point: 26 °F

Location of LørenskogLocation

Past Weather in Lørenskog — Graph

°F

Lørenskog Temperature Yesterday

Maximum temperature yesterday: 50 °F (at 7:00 pm)
Minimum temperature yesterday: 34 °F (at 6:00 am)
Average temperature yesterday: 42 °F

High & Low Weather Summary for the Past Weeks

 TemperatureHumidityPressure
High53 °F (Apr 21, 12:00 pm)98% (Apr 24, 6:00 am)30.55 "Hg (Apr 24, 6:00 am)
Low27 °F (Apr 19, 6:00 am)20% (Apr 22, 3:00 pm)29.23 "Hg (Apr 24, 6:00 pm)
Average40 °F59%29.94 "Hg
* Reported Apr 15 1:00 pm — Apr 30 1:00 pm, Lørenskog, Weather by CustomWeather, © 2017

Note: Actual official high and low records may vary slightly from our data, if they occured in-between our weather recording intervals... More about our weather records

Advertising

Lørenskog Weather History for the Previous 24 Hours

Scroll right to see more
 ConditionsComfort  
Time TempWeatherWind HumidityBarometerVisibility
1:00 pm
Sun, Apr 30
51 °FCool.5 mph38%30.14 "Hg25 mi
12:00 pm49 °FCool.3 mph42%30.16 "Hg22 mi
11:00 am47 °FPassing clouds.2 mph47%30.17 "Hg40 mi
10:00 am45 °FQuite cool.2 mph49%30.19 "Hg25 mi
9:00 am42 °FQuite cool.2 mph48%30.19 "Hg25 mi
8:00 am40 °FSunny.1 mph56%30.20 "Hg40 mi
7:00 am33 °FChilly.1 mph74%30.21 "Hg28 mi
6:00 am31 °FChilly.2 mph80%30.22 "Hg31 mi
5:00 am31 °FChilly.2 mph80%30.22 "Hg31 mi
4:00 am33 °FChilly.2 mph70%30.22 "Hg31 mi
3:00 am36 °FChilly.2 mph62%30.21 "Hg31 mi
2:00 am38 °FChilly.3 mph57%30.20 "Hg31 mi
1:00 am39 °FChilly.3 mph55%30.20 "Hg31 mi
12:00 am39 °FChilly.2 mph53%30.19 "Hg31 mi
11:00 pm
Sat, Apr 29
40 °FChilly.3 mph53%30.18 "Hg31 mi
10:00 pm39 °FChilly.1 mph60%30.17 "Hg31 mi
9:00 pm44 °FQuite cool.1 mph50%30.16 "Hg31 mi
8:00 pm49 °FScattered clouds.1 mph31%30.16 "Hg40 mi
7:00 pm50 °FCool.2 mph31%30.16 "Hg31 mi
6:00 pm49 °FCool.3 mph33%30.17 "Hg31 mi
5:00 pm49 °FPartly sunny.3 mph33%30.18 "Hg47 mi
4:00 pm49 °FCool.1 mph35%30.18 "Hg31 mi
3:00 pm49 °FCool.5 mph36%30.19 "Hg22 mi
Weather by CustomWeather, © 2017

See weather overviewHow to use our weather pages